Regional Weather Roundup
Issued by NWS

Home | Current Version | Previous Version | Text Only | Print | Product List | Glossary On
Versions: 1 2 3 4 5 6 7 8 9 10 11 12 13 14 15 16 17 18 19 20 21 22 23 24 25 26 27 28 29 30 31 32 33 34 35 36 37 38 39 40 41 42 43 44 45 46 47 48 49 50
000
ASUS45 KREV 281110
RWRNV
NEVADA REGIONAL WEATHER ROUNDUP
NATIONAL WEATHER SERVICE RENO NV
400 AM PDT SUN MAY 28 2017

NOTE: "FAIR" INDICATES FEW OR NO CLOUDS BELOW 12,000 FEET WITH NO
SIGNIFICANT WEATHER AND/OR OBSTRUCTIONS TO VISIBILITY.

NVZ001-003-004-281200-
WESTERN NEVADA

CITY           SKY/WX    TMP DP  RH WIND       PRES   REMARKS
RENO           CLEAR     54  28  36 W3        30.18S
CARSON CITY    FAIR      45  28  53 CALM      30.20S
MINDEN         FAIR      36  28  75 E6        30.20S
FALLON         CLEAR     50  28  42 W7        30.13S
LOVELOCK       CLEAR     49  29  46 CALM      30.14S
HAWTHORNE      CLEAR     54  27  35 CALM      30.14S
$$

NVZ002-CAZ072-073-281200-
NORTHERN AND CENTRAL SIERRA

CITY           SKY/WX    TMP DP  RH WIND       PRES   REMARKS
S. LAKE TAHOE  CLEAR     36  28  73 CALM      30.26S
TRUCKEE        CLEAR     34  30  86 CALM      30.26F
SQUAW VLY 8000   N/A     37  28  70 SW1         N/A
MAMMOTH LAKES  FAIR      42  20  41 W10       30.30S
BRIDGEPORT     FAIR      34  24  67 CALM      30.28F
$$

NVZ030-031-036-281200-
NORTHERN NEVADA

CITY           SKY/WX    TMP DP  RH WIND       PRES   REMARKS
ELKO           CLEAR     41  34  76 CALM      30.24S
WINNEMUCCA     CLEAR     46  34  62 SE7       30.18S
WENDOVER       CLEAR     54  35  48 CALM      30.22S
$$

NVZ035-037-281200-
CENTRAL NEVADA

CITY           SKY/WX    TMP DP  RH WIND       PRES   REMARKS
ELY            CLEAR     34  22  61 S9        30.30S
EUREKA           N/A     36  24  62 S8        30.26R
$$

NVZ013-014-281200-
SOUTH CENTRAL NEVADA

CITY           SKY/WX    TMP DP  RH WIND       PRES   REMARKS
TONOPAH        CLEAR     53  17  24 N14       30.19S
$$

NVZ017-020-022-281200-
SOUTHERN NEVADA

CITY           SKY/WX    TMP DP  RH WIND       PRES   REMARKS
LAS VEGAS      CLEAR     77  23  13 SE5       29.98S
N. LAS VEGAS   CLEAR     74  27  17 W5        29.99R
NELLIS AFB     CLEAR     78  27  15 N6        29.98R
HENDERSON      CLEAR     69  27  20 VRB3      30.03S
MERCURY        CLEAR     65  20  17 NE8       30.05S
$$



USA.gov is the U.S. government's official web portal to all federal, state and local government web resources and services.